Terug naar catalogus

DMSP 5D-2 F13 DEB

ActiefSSO
NORAD 40411·DEBRIS·🇺🇸 United States

Gelanceerd Mar 24, 1995 vanaf Vandenberg Space Force Base

Loading…

Volgende Passages (komende 24 uur)

TLE

VersSource: Space-Track

Epoch: Sep 12, 2026, 13:11 UTC

1 40411U 95015Y   26255.54980347  .00000476  00000-0  26055-3 0  9998
2 40411  98.8972 273.0921 0026367 126.6637 233.6966 14.16469553595349

Volg DMSP 5D-2 F13 DEB in realtime met AllMySat

Download on the App Store